Regional Weather Roundup
Issued by NWS Upton, NY

Current Version | Previous Version | Text Only | Print | Product List | Glossary Off
Versions: 1 2 3 4 5 6 7 8 9 10 11 12 13 14 15 16 17 18 19 20 21 22 23 24 25 26 27 28 29 30 31 32 33 34 35 36 37 38 39 40 41 42 43 44 45
000 ASUS41 KOKX 270205 RWROKX REGIONAL WEATHER ROUNDUP NATIONAL WEATHER SERVICE NEW YORK NY 900 PM EST FRI DEC 26 2014 NOTE: "FAIR" INDICATES FEW OR NO CLOUDS BELOW 12,000 FEET WITH NO SIGNIFICANT WEATHER AND/OR OBSTRUCTIONS TO VISIBILITY. NYZ071-072-176-178-NJZ106-104-270300- NEW YORK CITY METRO AREA CITY SKY/WX TMP DP RH WIND PRES REMARKS CENTRAL PARK CLEAR 46 29 51 VRB6 30.25S LAGUARDIA APRT CLEAR 46 29 51 W14 30.22F KENNEDY INTL PTCLDY 42 32 67 SW9 30.24S NEWARK/LIBERTY PTCLDY 42 30 62 SW7 30.24R BRNX BOT. GARD N/A N/A N/A N/A W15 30.24S TETERBORO CLEAR 39 30 70 S5 30.22S $$ NYZ177-179-078>081-270300- LONG ISLAND NEW YORK CITY SKY/WX TMP DP RH WIND PRES REMARKS FARMINGDALE CLEAR 41 30 65 W5 30.23R ISLIP PTCLDY 37 29 72 W5 30.21R WCI 33 SHIRLEY CLEAR 39 31 72 SW5 30.23R WESTHAMPTON CLEAR 27 22 81 CALM 30.23S MONTAUK POINT N/A 45 33 63 W8 30.21R $$ NYZ052-065-067-270300- HUDSON VALLEY CITY SKY/WX TMP DP RH WIND PRES REMARKS WHITE PLAINS CLEAR 41 28 60 W7 30.20S NEWBURGH CLEAR 39 30 70 CALM 30.21 MONTGOMERY CLEAR 30 26 85 SW3 30.19F POUGHKEEPSIE CLEAR 32 26 78 CALM 30.20S ALBANY PTCLDY 31 26 82 CALM 30.19S $$ NJZ001-105-106-008-010-013-015-019>022-104-270300- NEW JERSEY CITY SKY/WX TMP DP RH WIND PRES REMARKS NEWARK/LIBERTY PTCLDY 42 30 62 SW7 30.24R TETERBORO CLEAR 39 30 70 S5 30.22S CALDWELL CLEAR 39 29 67 SW3 30.23S MORRISTOWN CLEAR 34 30 86 CALM 30.23S SOMERVILLE CLEAR 31 27 85 CALM 30.23S SUSSEX CLEAR 32 27 81 CALM 30.22R ANDOVER NOT AVBL TRENTON CLEAR 40 29 64 W6 30.25R MILLVILLE CLEAR 30 27 88 CALM 30.28S ATLANTIC CITY CLEAR 33 28 81 CALM 30.28R WRIGHTSTOWN CLEAR 38 31 74 W5 30.24S WCI 35 TOMS RIVER CLEAR 28 27 93 CALM 30.27R BELMAR CLEAR 39 27 60 W6 30.24S WCI 35 $$ PAZ047>061-062-071-270300- EASTERN PENNSYLVANIA CITY SKY/WX TMP DP RH WIND PRES REMARKS PHILADELPHIA PTCLDY 40 31 70 SW3 30.28S ALLENTOWN CLEAR 34 27 75 CALM 30.24S SCRANTON CLEAR 33 27 78 S9 30.19F WCI 25 $$ CTZ002-004>006-009-010-012-RIZ004-006-007-MAZ004-011-015-270300- SOUTHERN NEW ENGLAND IN CT CITY SKY/WX TMP DP RH WIND PRES REMARKS BRADLEY INTL CLEAR 35 27 72 SW5 30.18S WCI 31 HARTFORD FAIR 32 30 92 SE7 30.20S WCI 26 DANBURY CLEAR 29 24 82 SW3 30.21S WTRBRY/OXFORD CLEAR 36 25 64 CALM 30.19S BRIDGEPORT CLEAR 42 37 82 SW5 30.21S MERIDEN CLEAR 31 27 85 CALM 30.20S NEW HAVEN CLEAR 44 35 70 SW3 30.20S CHESTER FAIR 39 32 75 W5 30.20S GROTON CLEAR 39 33 79 W6 30.20R WCI 35 WILLIMANTIC CLEAR 30 27 88 CALM 30.20R IN RI CITY SKY/WX TMP DP RH WIND PRES REMARKS PROVIDENCE CLEAR 35 29 78 S6 30.18S WCI 30 BLOCK ISLAND CLEAR 45 34 65 W12 30.19R WESTERLY CLEAR 40 32 73 W5 30.20R IN MA CITY SKY/WX TMP DP RH WIND PRES REMARKS BOSTON PTCLDY 43 29 57 W10 30.15S WORCESTER CLEAR 34 26 72 W7 30.15R WCI 28 WESTFIELD CLEAR 30 26 85 CALM 30.18S PROVINCETOWN PTCLDY 43 34 70 W13 30.16R NANTUCKET CLEAR 42 38 85 W8 30.17S $$ ANZ330-335-338-340-345-350-353-355-270300- COASTAL MARINE OBSERVATIONS STATION/POSITION TIME SKY/WX TEMP WIND PRES VSBY WAVE AIR SEA DIR/SP/G HT/PER (UTC) (F) (DEG/KT/KT) (MB) (MI) (FT/S) NY HARB ENTRANCE 0200 45 45 260/ 12/ 14 1024.2 1/12 4S FIRE IS 0200 47 N/A 2/11 20S FIRE ISLAND 0100 48 49 1024.0 2/ 8 23SW MTP 0200 N/A 3/ 4 HUDSON CANYON 0200 49 55 280/ 14/ 17 1023.9 3/ 5 EXECUTION ROCKS 0200 45 42 260/ 10/ 12 N/A WESTERN LI SOUND 0200 44 250/ 6/ 6 N/A 0 CENTRAL LI SOUND 0100 45 44 240/ 10/ 12 N/A 1/ 2 EASTERN LI SOUND NOT AVBL ROBBINS REEF 0100 44 1022.7 $$ >>>>>>>>>>>>>>>>>>>>>>>>>>>> KEY <<<<<<<<<<<<<<<<<<<<<<<<<<< > < > SKY/WX - SKY CONDITION/PRESENT WEATHER < > TMP - TEMPERATURE IN FAHRENHEIT < > DP - DEWPOINT IN FAHRENHEIT < > RH - RELATIVE HUMIDITY IN PERCENT < > WIND - DIRECTION AND SPEED IN MPH < > PRES - MEAN SEA LEVEL PRESSURE IN INCHES OF HG < > WCI - WIND CHILL INDEX < > VSB - VISIBILITY IN MILES < > HX - HEAT INDEX < > TC - TEMPERATURE IN CELSIUS < > VRB - VARIABLE WIND DIRECTION < > < >>>>>>>>>>>>>>>>>>>>>>>>>>>> KEY <<<<<<<<<<<<<<<<<<<<<<<<<<<

USA.gov is the U.S. government's official web portal to all federal, state and local government web resources and services.